User: anonymous   Login
Location: Columbia
(38.9520°N, 92.3340°W)
Time: 18:48:12
(UTC-05:00)
Language:

Cosmos 1603 - Orbit

View from above orbital plane
View from above orbital plane
View from above satellite
View from above satellite

Ground track
Ground track

The orbit data is extracted from the following two-line orbital elements,

1 15333U 84106A   14304.49207376  .00000236  00000-0  14905-3 0  1191
2 15333 071.0274 301.8049 0021193 232.9759 296.3369 14.13960350552604
Epoch (UTC): 31 October 2014 11:48:35
Eccentricity: 0.0021193
inclination: 71.0274°
perigee height: 830 km
apogee height: 861 km
right ascension of ascending node: 301.8049°
argument of perigee: 232.9759°
revolutions per day: 14.13960350
mean anomaly at epoch: 296.3369°
orbit number at epoch: 55260

The dashed part of the orbit path shows where the satellite is in the earth's shadow,  

DLR